Flag for U.S.A. Weather past 2 weeks in Durham, North Carolina, U.S.A.

Now
87 °F

Broken clouds.


Feels Like: 93 °F
Forecast: 72 / 87 °F
Wind: 6 mph from Southeast

Location: Raleigh-Durham International Airport

Current Time: Jul 28, 2015 at 6:33:45 PM

Latest Report: Jul 28, 2015 at 4:51 PM


Visibility: 10 mi

Pressure: 29.96 "Hg

Humidity: 59%

Dew point: 71 °F

Location of DurhamLocation

Historic Weather in Durham — Graph

°F

Durham temperature yesterday

Maximum temperature yesterday: 89 °F (at 3:51 PM)
Minimum temperature yesterday: 73 °F (at 3:51 AM)
Average temperature yesterday: 80 °F

Past Weeks' High & Low Weather Summary

 TemperatureHumidityPressure
High93 °F (Jul 19, 12:51 PM)97% (Jul 14, 4:51 AM)30.09 "Hg (Jul 14, 4:51 AM)
Low64 °F (Jul 25, 5:51 AM)43% (Jul 25, 1:51 PM)29.63 "Hg (Jul 14, 6:51 PM)
Average79 °F73%29.90 "Hg
* Reported Jul 13 4:51 PM — Jul 28 4:51 PM, Durham, Weather by CustomWeather, © 2015

Note: Actual official high and low records may vary slightly from our data, if they occured in-between our weather recording intervals... More about our weather records

Advertising

Durham weather history for previous 24 hours

 ConditionsComfort  
Time TempWeatherWind HumidityBarometerVisibility
4:51 PM
Tue, Jul 28
87 °FBroken clouds.6 mph59%29.96 "Hg10 mi
3:51 PM89 °FBroken clouds.12 mph53%29.95 "Hg10 mi
2:51 PM90 °FBroken clouds.10 mph56%29.96 "Hg10 mi
1:51 PM89 °FBroken clouds.8 mph55%29.98 "Hg10 mi
12:51 PM86 °FBroken clouds.7 mph59%30.01 "Hg10 mi
11:51 AM86 °FBroken clouds.6 mph61%30.01 "Hg10 mi
10:51 AM85 °FBroken clouds.5 mph63%30.02 "Hg10 mi
9:51 AM83 °FScattered clouds.No wind72%30.01 "Hg10 mi
8:51 AM79 °FScattered clouds.3 mph79%30.01 "Hg10 mi
7:51 AM77 °FScattered clouds.5 mph85%30.01 "Hg10 mi
6:51 AM74 °FPassing clouds.No wind91%30.00 "Hg10 mi
5:51 AM74 °FPassing clouds.No wind91%29.98 "Hg10 mi
4:51 AM74 °FPassing clouds.3 mph88%29.98 "Hg10 mi
3:51 AM76 °FPartly cloudy.No wind82%29.99 "Hg10 mi
2:51 AM77 °FPartly cloudy.3 mph79%30.01 "Hg10 mi
1:51 AM77 °FPassing clouds.3 mph79%30.01 "Hg10 mi
12:51 AM78 °FPassing clouds.5 mph76%30.01 "Hg10 mi
11:51 PM
Mon, Jul 27
79 °FPassing clouds.5 mph74%30.00 "Hg10 mi
10:51 PM80 °FPassing clouds.6 mph71%30.00 "Hg10 mi
9:51 PM81 °FPartly cloudy.3 mph69%29.98 "Hg10 mi
8:51 PM82 °FBroken clouds.6 mph67%29.96 "Hg10 mi
7:51 PM84 °FBroken clouds.5 mph67%29.96 "Hg10 mi
6:51 PM87 °FBroken clouds.8 mph61%29.95 "Hg10 mi
Weather by CustomWeather, © 2015

See weather overviewHow to use our weather pages